Home > Weather > Elverum > Past weeks

Flag for Norway Past Weather in Elverum, Norway — Yesterday and Last 2 Weeks

Now
50 °F

Cool.


Feels Like: 48 °F
Forecast: 41 / 62 °F
Wind: 6 mph from North

Location: Haugedalshogda

Current Time: May 24, 2016 at 2:01:54 PM

Latest Report: May 24, 2016 at 1:00 PM


Visibility: N/A

Pressure: 30.17 "Hg

Humidity: 67%

Dew Point: 39 °F

Location of ElverumLocation

Past Weather in Elverum — Graph

°F

Elverum Temperature Yesterday

Maximum temperature yesterday: 56 °F (at 8:00 AM)
Minimum temperature yesterday: 48 °F (at 11:00 PM)
Average temperature yesterday: 53 °F

High & Low Weather Summary for the Past Weeks

 TemperatureHumidityPressure
High73 °F (May 9, 4:00 PM)100% (May 23, 4:00 AM)30.34 "Hg (May 23, 4:00 AM)
Low22 °F (May 17, 5:00 AM)14% (May 12, 3:00 PM)29.65 "Hg (May 17, 8:00 PM)
Average48 °F66%29.88 "Hg
* Reported May 9 1:00 PM — May 24 1:00 PM, Elverum, Weather by CustomWeather, © 2016

Note: Actual official high and low records may vary slightly from our data, if they occured in-between our weather recording intervals... More about our weather records

Advertising

Elverum Weather History for the Previous 24 Hours

Scroll right to see more
 ConditionsComfort  
Time TempWeatherWind HumidityBarometerVisibility
1:00 PM
Tue, May 24
50 °FCool.6 mph67%30.17 "HgN/A
12:00 PM48 °FCool.6 mph74%30.18 "HgN/A
11:00 AM45 °FQuite cool.5 mph81%30.19 "HgN/A
10:00 AM44 °FQuite cool.6 mph83%30.17 "HgN/A
9:00 AM42 °FQuite cool.8 mph86%30.17 "HgN/A
8:00 AM41 °FQuite cool.8 mph89%30.17 "HgN/A
7:00 AM42 °FQuite cool.8 mph88%30.15 "HgN/A
6:00 AM42 °FQuite cool.8 mph87%30.13 "HgN/A
5:00 AM44 °FQuite cool.7 mph84%30.11 "HgN/A
4:00 AM45 °FQuite cool.5 mph82%30.10 "HgN/A
3:00 AM45 °FCool.6 mph84%30.08 "HgN/A
2:00 AM46 °FCool.6 mph87%30.06 "HgN/A
1:00 AM47 °FCool.3 mph87%30.06 "HgN/A
12:00 AM48 °FCool.2 mph85%30.04 "HgN/A
11:00 PM
Mon, May 23
48 °FCool.2 mph88%30.02 "HgN/A
10:00 PM49 °FCool.1 mph92%30.00 "HgN/A
9:00 PM49 °FCool.2 mph96%29.99 "HgN/A
8:00 PM49 °FCool.3 mph97%29.97 "HgN/A
7:00 PM50 °FCool.3 mph97%29.95 "HgN/A
6:00 PM51 °FCool.3 mph97%29.93 "HgN/A
5:00 PM52 °FCool.6 mph96%29.91 "HgN/A
4:00 PM52 °FCool.5 mph94%29.90 "HgN/A
3:00 PM53 °FCool.N/A92%29.88 "HgN/A
2:00 PM54 °FCool.5 mph92%29.87 "HgN/A
Weather by CustomWeather, © 2016

See weather overviewHow to use our weather pages